Regional Weather Roundup
Issued by NWS Albany, NY

Home | Current Version | Previous Version | Text Only | Print | Product List | Glossary On
Versions: 1 2 3 4 5 6 7 8 9 10 11 12 13 14 15 16 17 18 19 20 21 22 23 24 25 26 27
000
ASUS41 KALY 222210
RWRALY

NEW YORK STATE HOURLY WEATHER ROUNDUP
NATIONAL WEATHER SERVICE ALBANY NY
600 PM EDT WED MAR 22 2017

NOTE: "FAIR" INDICATES FEW OR NO CLOUDS BELOW 12,000 FEET WITH NO
SIGNIFICANT WEATHER AND/OR NO OBSTRUCTIONS TO VISIBILITY.

NYZ032-033-038>043-046>054-057>066-NYZ062>081-082-084-222300-
EAST


CITY           SKY/WX    TMP DP  RH WIND       PRES   REMARKS
ALBANY         MOSUNNY   25  -5  26 NW17G29   30.30R WCI  12
GLENS FALLS    SUNNY     22  -7  27 N14G23    30.30R WCI   9
POUGHKEEPSIE   SUNNY     26  -4  27 N22G31    30.28R WCI  12
NEWBURGH       SUNNY     27   1  33 N18G30    30.27R WCI  13
MONTGOMERY     SUNNY     28  -2  27 NW15G25   30.28R WCI  16
WHITE PLAINS   SUNNY     29  -4  24 NW20G30   30.22R WCI  16
ISLIP          SUNNY     31  -4  22 NW22G37   30.21R WCI  18
NEW YORK CITY  SUNNY     34   3  27 NW21G36   30.26R WCI  22
CENTRAL PARK   SUNNY     31  -3  23 NW20G35   30.28R WCI  19
$$

NYZ005>009-017-018-044>046-055-056-222300-
CENTRAL


CITY           SKY/WX    TMP DP  RH WIND       PRES   REMARKS
FULTON         MOSUNNY   23   2  40 NW20G25   30.44S WCI   8
SYRACUSE       MOSUNNY   21   3  45 NW12G25   30.44R WCI   9
ROME           SUNNY     20   1  43 NW16      30.41R WCI   6
ELMIRA         SUNNY     26   0  32 N16G23    30.40R WCI  14
BINGHAMTON     SUNNY     17   1  49 NW10G22   30.32R WCI   5
MONTICELLO     SUNNY     21  -4  33 NW16G35   30.26R WCI   7
$$

NYZ026>034-041>043-087-222300-
NORTH


CITY           SKY/WX    TMP DP  RH WIND       PRES   REMARKS
WATERTOWN      SUNNY     23  -2  33 W10       30.44R WCI  12
FORT DRUM      NOT AVBL
MASSENA        SUNNY     18  -2  41 W13G21    30.42S WCI   5
SARANAC LAKE   SUNNY     11  -7  44 VRB7G20   30.23R WCI   0
PLATTSBURGH    SUNNY     17  -5  37 NW14G23   30.34R WCI   3
$$

NYZ001>004-010>016-019>021-085-222300-
WEST


CITY           SKY/WX    TMP DP  RH WIND       PRES   REMARKS
NIAGARA FALLS  SUNNY     29   5  36 W16       30.50R WCI  17
BUFFALO        MOSUNNY   27   5  39 NW15G21   30.48S WCI  15
DUNKIRK        SUNNY     26   9  48 W7        30.51S WCI  18
JAMESTOWN      SUNNY     21   3  45 N13       30.42R WCI   9
WELLSVILLE     SUNNY     23  -1  35 NW14G24   30.35R WCI  11
ROCHESTER      MOSUNNY   25   3  38 NW12      30.47S WCI  14
PENN YAN       SUNNY     23   1  38 NW15      30.42R WCI  10
$$

             KEY
       WCI = WIND CHILL INDEX
       VSB = VISIBILITY
       HX  = HEAT INDEX
$$




USA.gov is the U.S. government's official web portal to all federal, state and local government web resources and services.